This demonstration page uses our WeatherBlox Daily Observations layout. Learn more.

Left ArrowRight Arrow

41.55636, -103.73856

Hourly Observations for January 23, 2021

Temp ( °F °C ) Dew Point ( °F °C ) Humidity (%) Winds ( mph kmh ) Pressure ( in mb ) Visibility ( mi km ) Precip ( " mm )
12:53 am 00:53 Clear 29 -1.7 19 -7.2 66 66 ESE 14 22 29.88 1012 10 16.0934 0 0
1:53 am 01:53 Partly Cloudy 27 -2.8 18 -7.8 69 69 ESE 15 24 29.87 1012 10 16.0934 0 0
2:53 am 02:53 Cloudy 26 -3.3 17 -8.3 69 69 ESE 15 24 29.87 1011 10 16.0934 0 0
3:53 am 03:53 Cloudy 24 -4.4 17 -8.3 75 75 ESE 14 22 29.84 1010 10 16.0934 0 0
4:53 am 04:53 Cloudy 24 -4.4 17 -8.3 75 75 ESE 14 22 29.83 1010 10 16.0934 0 0
5:53 am 05:53 Cloudy 24 -4.4 17 -8.3 75 75 ESE 12 19 29.84 1010 10 16.0934 0 0
6:53 am 06:53 Cloudy 23 -5 17 -8.3 78 78 ESE 13 20 29.84 1011 10 16.0934 0 0
7:53 am 07:53 Sunny 22 -5.6 16 -8.9 78 78 E 10 17 29.86 1011 10 16.0934 0 0
8:53 am 08:53 Mostly Cloudy 23 -5 17 -8.3 78 78 ESE 8 13 29.86 1011 10 16.0934 0 0
9:53 am 09:53 Mostly Sunny 25 -3.9 18 -7.8 75 75 E 7 11 29.86 1011 10 16.0934 0 0
10:53 am 10:53 Partly Cloudy 29 -1.7 20 -6.7 69 69 Calm 29.85 1011 10 16.0934 0 0
11:53 am 11:53 Cloudy 32 0 22 -5.6 66 66 NNW 6 9 29.81 1010 10 16.0934 0 0
12:51 pm 12:51 Cloudy 32 0 21 -6 64 64 N 8 13 29.86 1011 10 16.0934 0 0
12:53 pm 12:53 Cloudy 32 0 21 -6.1 64 64 N 9 15 29.81 1010 10 16.0934 0 0
1:53 pm 13:53 Cloudy 31 -0.6 20 -6.7 64 64 N 14 22 29.83 1010 10 16.0934 0 0
2:53 pm 14:53 Cloudy 30 -1.1 21 -6.1 69 69 N 13 20 29.88 1012 10 16.0934 0 0
3:53 pm 15:53 Cloudy 29 -1.7 20 -6.7 69 69 N 15 24 29.9 1013 10 16.0934 0 0
4:36 pm 16:36 Cloudy 28 -2.2 20 -6.7 72 72 N 8 13 29.98 1015 9 14.48406 0.001 0.001
4:53 pm 16:53 Cloudy 28 -2.2 21 -6.1 75 75 NW 7 11 29.96 1014 10 16.0934 0.001 0.001
5:34 pm 17:34 Cloudy with Light Snow 28 -2.2 21 -6.1 75 75 NNW 7 11 30.03 1017 3 4.82802 0.001 0.001
5:45 pm 17:45 Cloudy with Light Snow 27 -2.8 22 -5.6 81 81 NNW 7 11 30.04 1017 1.75 2.816345 0.01 0.254
5:53 pm 17:53 Cloudy with Light Snow 27 -2.8 22 -5.6 81 81 NNW 7 11 29.98 1015 1.5 2.41401 0.01 0.254
6:07 pm 18:07 Cloudy with Light Snow 27 -2.8 22 -5.6 81 81 NNW 9 15 30.04 1017 2 3.21868 0.01 0.254
6:15 pm 18:15 Cloudy with Light Snow 27 -2.8 23 -5 85 85 N 12 19 30.04 1017 1.5 2.41401 0.01 0.254
6:40 pm 18:40 Cloudy with Light Snow 27 -2.8 23 -5 85 85 NW 7 11 30.05 1017 2.5 4.02335 0.02 0.508
6:53 pm 18:53 Cloudy with Light Snow 27 -2.8 22 -5.6 81 81 NNW 9 15 30 1016 3 4.82802 0.02 0.508
7:21 pm 19:21 Cloudy with Light Snow 27 -2.8 23 -5 85 85 NW 6 9 30.08 1018 1.75 2.816345 0.001 0.001
7:53 pm 19:53 Cloudy with Light Snow 27 -2.8 23 -5 85 85 W 5 7 30.04 1017 1.25 2.011675 0.01 0.254
8:50 pm 20:50 Cloudy with Light Snow 27 -3 23 -5 86 86 WNW 6 9 30.1 1019 2.5 4.02335 0.02 0.508
8:53 pm 20:53 Cloudy with Light Snow 27 -2.8 23 -5 85 85 WNW 5 7 30.04 1017 2.5 4.02335 0.02 0.508
9:03 pm 21:03 Cloudy with Light Snow 27 -2.8 23 -5 85 85 WNW 6 9 30.1 1019 2.5 4.02335 0.001 0.001
9:14 pm 21:14 Cloudy with Light Snow 27 -2.8 23 -5 85 85 NW 6 9 30.1 1019 3 4.82802 0.01 0.254
9:27 pm 21:27 Cloudy with Light Snow 27 -2.8 23 -5 85 85 WNW 6 9 30.11 1020 2.5 4.02335 0.01 0.254
9:42 pm 21:42 Cloudy with Light Snow 26 -3.3 23 -5 88 88 WNW 5 7 30.11 1020 4 6.43736 0.01 0.254
9:53 pm 21:53 Cloudy 25 -3.9 22 -5.6 88 88 W 3 6 30.05 1018 8 12.87472 0.01 0.254
10:53 pm 22:53 Cloudy 24 -4.4 21 -6.1 88 88 NNW 3 6 30.04 1017 9 14.48406 0 0
11:53 pm 23:53 Cloudy 25 -3.9 21 -6.1 85 85 Calm 30.04 1017 9 14.48406 0 0

Powered by AerisWeather